CZ-6A DEB, 56280

Orbit data source: Space-Track

CZ-6A DEB, 56280 is space debris in SSO originally from a launch on Fri, 11 Nov 2022 UTC launched from the Taiyaun Space Center, China (TSC). Debris objects in space refer to the collection of defunct objects orbiting the Earth. Examples of debris include non-operational satellites, rocket bodies, and fragments generated from explosions, collisions, or faulty payload assembly.

Loading next visibility...
Identifier
56280, 2022-151ACY
Orbit
SSO
Country
Flag of CNCN / PRC
Related business
Manufacturer
SAST
Mission
Spacecraft
Bus & Motor
Unknown
Mass
Unknown
Launch date (UTC)
2022-11-11 (4 years ago)
Launch vehicle
Unknown
Launch site
Taiyaun Space Center, China (TSC)
Object type
Payload
Rocket body
Debris
Shape & HBR
Unknown shape, 0.1 m
Radar Cross Section
Small (<0.1 m²)

Expand to show TLE details & history
Last TLE update: 3 days ago

TLE from 3 days ago
0 CZ-6A DEB
1 56280U 22151ACY 26170.88174294  .00000488  00000-0  33880-3 0  9996
2 56280  98.8730 149.3253 0102139  40.8830 319.9939 14.00988408166169
Epoch: 2026-06-19T21:09Z
TLE epoch observation values (Epoch: 2026-06-19T21:09:42.590Z)
Latitude
-0.00003°
Longitude
-76.20651°
Altitude
836.698 km
Speed
7.463 km/s
True Right ascension
09h 57m 18s
True Declination
0° 00' 00"
Sunlit
Object was in daylight at epoch
Visualization orbit readout
Latitude
Unknown
Longitude
Unknown
Altitude
Unknown
Speed
Unknown
Apparent Right ascension
Unknown
Apparent Declination
Unknown
Sunlit
N/A
Visualization observer readout
Local Sidereal Time
21:37:44
Azimuth
Unknown
Elevation
Unknown
Doppler factor
Unknown
Orbital elements
Apogee altitude
961.777 km
Perigee altitude
813.355 km
Semi-major axis
7,265.703 km
Eccentricity
0.01021
Inclination
98.873°
RAAN
149.3253°
Arg. of periapsis
40.883°
True anomaly
319.23406°
Mean anomaly
319.9939°
Eccentric anomaly
319.61473°
Mean motion
3.50451 °/min
Orbital period
102.72 mins
BSTAR
0.0003388
Loading maneuver chart data...
Computing Atmospheric mass density...
Loading historical data...
Loading historical data...
Loading historical data...
Loading historical data...
Loading historical data...
Loading historical data...
Loading historical data...

Documentation

Showing up to 5 results
|